Regional Weather Roundup
Issued by NWS Charleston, SC

Current Version | Previous Version | Graphics & Text | Print | Product List | Glossary On
Versions: 1 2 3 4 5 6 7 8 9 10 11 12 13 14 15 16 17 18 19 20 21 22 23 24 25 26 27 28 29 30 31 32 33 34 35 36 37 38 39 40 41 42 43 44 45 46 47 48 49 50
924
ASUS42 KCHS 181027
RWRCHS

Regional Weather Roundup
National Weather Service Charleston SC
500 AM EST THU JAN 18 2018

NOTE: "fair" indicates few or no clouds below 12,000 feet with no
significant weather and/or obstructions to visibility.

Not all stations are quality controlled. Use data with caution,
especially dewpoint observations.

SCZ027-030-031-034>040-042>050-181100-
...Southeast South Carolina...

CITY           SKY/WX    TMP DP  RH WIND       PRES   REMARKS
N Charleston   FAIR      27  17  66 NW9       30.33R WCI  18
Waterfront Prk NOT AVBL
Mount Pleasant FAIR      28  21  74 NW8       30.33R WCI  20
Johns Island   FAIR      28  18  64 W13       30.34R WCI  18
Pinopolis        N/A     28  19  69 N15       30.24R WCI  17
Moncks Corner  FAIR      25  12  58 NW5       30.34R WCI  19
Summerville    FAIR      27  12  54 NW5       30.36R WCI  21
Beaufort MCAS  FAIR      27  20  75 NW9       30.37R WCI  18
Beaufort Arpt  FAIR      28  19  69 NW13G18   30.37R WCI  18
Hilton Head Is FAIR      27  16  63 NW8       30.38R WCI  18
Walterboro     FAIR      27  18  69 NW10      30.38R WCI  17
Allendale      FAIR      23  10  58 NW5       30.38R WCI  17

...Southern Midlands and Pee Dee...

CITY           SKY/WX    TMP DP  RH WIND       PRES   REMARKS
Georgetown     FAIR      25  16  68 NW9       30.32R WCI  15
Kingstree      FAIR      23  12  63 NW5       30.33R WCI  17
Orangeburg     FAIR      24  12  60 NW8       30.36R WCI  15
Barnwell         N/A     21  12  68 W3        30.38S
Aiken          FAIR      18  12  79 W5        30.39S WCI  11
Manning        FAIR      25  10  54 MISG      30.34R
Columbia       FAIR      21  16  81 W3        30.35R
Sumter         FAIR      20  10  63 W6        30.32R WCI  13
Florence       FAIR      21   9  59 NW7       30.32R WCI  12
Myrtle Beach   CLOUDY    27  20  75 NW13      30.29R WCI  16
N Myrtle Beach FAIR      26  18  71 NW12G18   30.27R WCI  16

$$

GAZ063-065-086>088-099>101-113>116-118-119-134>141-150-181100-
...Southeast Georgia...

CITY           SKY/WX    TMP DP  RH WIND       PRES   REMARKS
Savannah Arpt  FAIR      26  12  55 NW10      30.39R WCI  16
Hunter AAF     FAIR      25  11  56 NW10      30.35R WCI  15
Fort Stewart   FAIR      24  11  58 NW7       30.38S WCI  16
Statesboro     FAIR      23  11  61 W6        30.41R WCI  15
Sylvania       FAIR      23  15  69 NW6       30.40S WCI  16
Claxton        FAIR      24  13  63 W6        30.41S WCI  17

...CSRA, Central and far Southeast Georgia...

CITY           SKY/WX    TMP DP  RH WIND       PRES   REMARKS
Thomson        FAIR      18   9  69 NW3       30.44S
Augusta-Bush   FAIR      21  11  65 W6        30.40R WCI  13
Augusta-Daniel FAIR      23  10  57 VRB3      30.38R
Swainsboro     FAIR      21  14  73 NW5       30.42R WCI  15
Vidalia        FAIR      23  14  68 NW6       30.41S WCI  16
Eastman        FAIR      21   6  51 NW3       30.46R
Hazlehurst     FAIR      23   8  51 NW3       30.41S
Alma           FAIR      23  11  60 NW9       30.42R WCI  13
Waycross       FAIR      23  10  56 N7        30.41F WCI  14
Jesup          FAIR      25  12  58 NW8       30.41S WCI  16
Baxley         FAIR      23  10  58 NW5       30.41S WCI  17
Brunswick      FAIR      25  14  63 W8        30.41R WCI  16
Saint Simons   FAIR      25  13  60 NW9       30.39S WCI  15

$$

SCZ027-028-034-036>038-045-046-048>050-GAZ119-141-181100-
...Lake and Supplemental Coastal Observations...

STATION/POSITION TIME  TEMP    WIND        PRES    WAVE   SWELL
                       AIR SEA DIR/SP/G            HT/PER HT/PER/DIR
                 (UTC) (F)     (DEG/KT/KT) (MB)    (FT/S) (FT/S/D)
Winyah Bay       0930   27     320/  8     1026.0R
Lake Murray      1020   22     280/  7/  9 1026.8R
ACE Basin NERRS  0945   27     300/  3     1027.0S
Fort Pulaski     1000   27 46  320/ 14/ 16 1028.6
Sapelo Island    1000   27     320/ 11     1029.0

$$

ANZ835-935-AMZ111-154-330-350-352-354-370-450-454-472-181100-
...C-MAN and Buoy Observations...

STATION/POSITION TIME  TEMP    WIND        PRES    WAVE   SWELL
                       AIR SEA DIR/SP/G            HT/PER HT/PER/DIR
                 (UTC) (F)     (DEG/KT/KT) (MB)    (FT/S) (FT/S/D)
Buoy 41004       1010   36 66  320/ 19/ 27 1025.1
Buoy 41008       0950   32 50  320/ 19/ 23 1027.5F   4/ 5   2/100/11
Folly Beach CMAN 1000   28     310/  6/  9 1027.2R
Capers Nearshore 0908   27 48  330/ 19/ 27 1025.4R
Fripp Nearshore  0908   30 46  320/ 16/ 23 1027.1R


STATION/POSITION TIME  TEMP    WIND        PRES    WAVE   SWELL
                       AIR SEA DIR/SP/G            HT/PER HT/PER/DIR
                 (UTC) (F)     (DEG/KT/KT) (MB)    (FT/S) (FT/S/D)
5E St. Marys GA  1000      49                N/A     4/ 4   2/100/11
Frying Pan Buoy  1010   33 65  330/ 21/ 29 1022.9
Buoy 41025       1010   34 69  320/ 31/ 41 1017.1
Cape Lookout NC  1000          330/ 22/ 25 1021.0R
Buoy 41002       0950   56 70  280/ 29/ 35 1014.4R  14/10
Buoy 41010       NOT AVBL
St Augustine FL  1000   28 48  320/ 18/ 21 1027.6F


$$




USA.gov is the U.S. government's official web portal to all federal, state and local government web resources and services.